Regional Weather Roundup
Issued by NWS

Home | Current Version | Previous Version | Text Only | Print | Product List | Glossary Off
Versions: 1 2 3 4 5 6 7 8 9 10 11 12 13 14 15 16 17 18 19 20 21 22 23 24 25 26 27 28 29 30 31 32 33 34 35 36 37 38 39 40 41 42 43 44 45 46 47 48 49 50

000
ASUS43 KTOP 210059
RWRKS

WEATHER ROUNDUP FOR KANSAS
NATIONAL WEATHER SERVICE GOODLAND KS
800 PM CDT MON OCT 20 2014

NOTE:  "FAIR" INDICATES FEW OR NO CLOUDS BELOW 12,000 FEET WITH NO
SIGNIFICANT WEATHER AND/OR OBSTRUCTIONS TO VISIBILITY.

KSZ001>006-013>018-027>032-041>047-210200-
NORTHWEST KANSAS

CITY           SKY/WX    TMP DP  RH WIND       PRES   REMARKS
GOODLAND       CLEAR     58  39  49 S10       30.11R
HAYS           CLEAR     63  45  51 E7        30.08R
HILL CITY      CLEAR     58  40  51 CALM      30.07S
RUSSELL        CLEAR     65  44  46 E8        30.06R
$$

KSZ061>065-074>080-084>089-210200-
SOUTHWEST KANSAS

CITY           SKY/WX    TMP DP  RH WIND       PRES   REMARKS
DODGE CITY     CLEAR     59  44  57 SE7       30.09R
ELKHART          N/A     61  49  65 E7          N/A
GARDEN CITY    CLEAR     62  42  47 E8        30.09R
GREAT BEND     CLEAR     64  45  48 E3        30.08R
LIBERAL        CLEAR     68  52  56 E9        30.10R
$$

KSZ066>073-081>083-090>101-210200-
SOUTHEAST KANSAS

CITY           SKY/WX    TMP DP  RH WIND       PRES   REMARKS
CHANUTE        CLEAR     60  50  69 N5        30.04R
COFFEYVILLE    CLEAR     62  58  86 CALM      30.03R
HUTCHINSON     CLEAR     58  45  62 NE3       30.07R
NEWTON         CLEAR     66  43  42 NE7       30.08S
PARSONS        CLEAR     59  56  89 CALM      30.04R
WICHITA INTL   CLEAR     73  44  35 NE6       30.05R
WICHITA JABRA  FAIR      64  46  52 NE6       30.05R
WINFIELD       CLEAR     68  51  54 SE3       30.05R
$$

KSZ007>012-019>026-033>040-048>060-102>105-210200-
NORTHEAST KANSAS

CITY           SKY/WX    TMP DP  RH WIND       PRES   REMARKS
CONCORDIA      CLEAR     60  45  57 SE5       30.06R
EMPORIA        CLEAR     63  46  54 NE5       30.05R
LAWRENCE       CLEAR     54  46  74 CALM      30.05R HAZE
MANHATTAN      CLEAR     54  45  71 CALM      30.05R
OLATHE IND     CLEAR     57  46  66 N6        30.05S
OLATHE EXE     CLEAR     64  45  49 N3        30.04R
SALINA         CLEAR     64  47  53 CALM      30.06R
TOPEKA BILLARD CLEAR     58  47  66 CALM      30.05R
TOPEKA FORBES  CLEAR     55  45  68 CALM      30.05R
$$


USA.gov is the U.S. government's official web portal to all federal, state and local government web resources and services.